User: anonymous   Login
Location: Unspecified
(0.0000°N, 0.0000°E)
Time: 21:06:45
(UTC+00:00)
Language:

BEIDOU 3M15 - Orbit

View from above orbital plane
View from above orbital plane
View from above satellite
View from above satellite

Ground track
Ground track

The orbit is defined by the following mean orbital elements,

1 43647U          26144.39394024 +.00000000 +00000-0 +00000-0 0 00008
2 43647  54.1126 300.8196 0007676  40.4072 319.6276  1.86232305    09
Epoch (UTC): 24 May 2026 09:27:16
Eccentricity: 0.0007676
inclination: 54.1126°
perigee height: 21507 km
apogee height: 21549 km
right ascension of ascending node: 300.8196°
argument of perigee: 40.4072°
revolutions per day: 1.86232305
mean anomaly at epoch: 319.6276°

The dashed part of the orbit path shows where the satellite is in the earth's shadow,  

DLR